GIA342 WARR-WADD

Flight info

Callsign GIA342
Flight time 0h 36m
Altitude 25000
Route MOVMO
Aircraft B738/M-SDE2E3FGHIRWYZ/LB1

Departure

Time 2026-05-09 10:56
Airport Juanda International Airport (WARR)

Arrival

Time 2026-05-09 11:32
Airport Denpasar I Gusti Ngurah Rai International Airport (WADD)
Time Latitude Longitude Altitude Speed Heading
2026-05-09 10:29 -7.37630 112.79709 8 ft 0 kts
2026-05-09 10:44 -7.37652 112.79705 9 ft 4 kts
2026-05-09 10:44 -7.37679 112.79704 10 ft 4 kts 356°
2026-05-09 10:45 -7.37705 112.79708 8 ft 4 kts 333°
2026-05-09 10:46 -7.37720 112.79723 10 ft 0 kts 279°
2026-05-09 10:48 -7.37719 112.79714 10 ft 3 kts 278°
2026-05-09 10:48 -7.37713 112.79678 8 ft 8 kts 279°
2026-05-09 10:48 -7.37704 112.79609 8 ft 12 kts 278°
2026-05-09 10:49 -7.37689 112.79518 8 ft 14 kts 280°
2026-05-09 10:49 -7.37711 112.79448 8 ft 11 kts 195°
2026-05-09 10:49 -7.37785 112.79436 8 ft 11 kts 189°
2026-05-09 10:49 -7.37858 112.79424 8 ft 10 kts 187°
2026-05-09 10:50 -7.37910 112.79382 8 ft 11 kts 252°
2026-05-09 10:50 -7.37906 112.79300 8 ft 13 kts 278°
2026-05-09 10:50 -7.37891 112.79203 8 ft 15 kts 279°
2026-05-09 10:50 -7.37873 112.79092 8 ft 16 kts 279°
2026-05-09 10:51 -7.37855 112.78981 8 ft 16 kts 279°
2026-05-09 10:51 -7.37838 112.78873 8 ft 15 kts 278°
2026-05-09 10:51 -7.37821 112.78769 8 ft 16 kts 279°
2026-05-09 10:51 -7.37801 112.78648 8 ft 18 kts 279°
2026-05-09 10:52 -7.37782 112.78525 8 ft 18 kts 278°
2026-05-09 10:52 -7.37763 112.78405 8 ft 17 kts 279°
2026-05-09 10:52 -7.37743 112.78284 8 ft 19 kts 279°
2026-05-09 10:52 -7.37720 112.78145 8 ft 21 kts 279°
2026-05-09 10:53 -7.37696 112.77992 8 ft 22 kts 279°
2026-05-09 10:53 -7.37672 112.77840 8 ft 22 kts 279°
2026-05-09 10:53 -7.37646 112.77693 8 ft 21 kts 279°
2026-05-09 10:53 -7.37623 112.77550 8 ft 20 kts 279°
2026-05-09 10:54 -7.37613 112.77414 7 ft 16 kts 248°
2026-05-09 10:54 -7.37707 112.77377 7 ft 15 kts 183°
2026-05-09 10:54 -7.37773 112.77393 9 ft 8 kts 105°
2026-05-09 10:54 -7.37783 112.77446 8 ft 8 kts 100°
2026-05-09 10:55 -7.37794 112.77506 8 ft 12 kts 99°
2026-05-09 10:55 -7.37832 112.77749 8 ft 70 kts 98°
2026-05-09 10:55 -7.37899 112.78170 7 ft 114 kts 99°
2026-05-09 10:55 -7.38051 112.79155 42 ft 166 kts 98°
2026-05-09 10:56 -7.38229 112.80344 655 ft 172 kts 95°
2026-05-09 10:56 -7.38399 112.81554 1466 ft 170 kts 98°
2026-05-09 10:56 -7.38600 112.82761 2071 ft 185 kts 98°
2026-05-09 10:56 -7.38830 112.84136 2322 ft 212 kts 99°
2026-05-09 10:57 -7.39088 112.85680 2547 ft 232 kts 99°
2026-05-09 10:57 -7.39362 112.87342 2783 ft 253 kts 99°
2026-05-09 10:57 -7.39657 112.89142 3313 ft 263 kts 99°
2026-05-09 10:57 -7.39951 112.90948 4058 ft 266 kts 99°
2026-05-09 10:58 -7.40263 112.92804 4859 ft 267 kts 101°
2026-05-09 10:58 -7.40639 112.94630 5533 ft 272 kts 102°
2026-05-09 10:58 -7.41051 112.96509 6225 ft 276 kts 103°
2026-05-09 10:58 -7.41470 112.98399 6952 ft 278 kts 102°
2026-05-09 10:59 -7.41893 113.00312 7614 ft 282 kts 102°
2026-05-09 10:59 -7.42320 113.02256 8279 ft 286 kts 102°
2026-05-09 10:59 -7.42757 113.04252 8960 ft 290 kts 102°
2026-05-09 10:59 -7.43187 113.06224 9627 ft 294 kts 102°
2026-05-09 11:00 -7.43626 113.08245 10233 ft 298 kts 102°
2026-05-09 11:00 -7.44086 113.10362 10439 ft 320 kts 102°
2026-05-09 11:00 -7.44581 113.12645 10613 ft 339 kts 102°
2026-05-09 11:00 -7.45085 113.14975 10980 ft 349 kts 102°
2026-05-09 11:01 -7.45606 113.17380 11519 ft 353 kts 102°
2026-05-09 11:01 -7.46131 113.19804 12111 ft 356 kts 102°
2026-05-09 11:01 -7.46669 113.22289 12715 ft 360 kts 102°
2026-05-09 11:01 -7.47206 113.24768 13291 ft 364 kts 102°
2026-05-09 11:02 -7.47749 113.27274 13839 ft 368 kts 102°
2026-05-09 11:02 -7.48298 113.29804 14373 ft 371 kts 102°
2026-05-09 11:02 -7.48845 113.32327 14939 ft 373 kts 102°
2026-05-09 11:02 -7.49410 113.34933 15477 ft 377 kts 103°
2026-05-09 11:03 -7.49968 113.37516 16002 ft 381 kts 103°
2026-05-09 11:03 -7.50534 113.40138 16554 ft 383 kts 103°
2026-05-09 11:03 -7.51337 113.42663 17063 ft 385 kts 115°
2026-05-09 11:03 -7.52665 113.45003 17590 ft 386 kts 126°
2026-05-09 11:04 -7.54421 113.47058 18099 ft 388 kts 137°
2026-05-09 11:04 -7.56438 113.48906 18559 ft 389 kts 140°
2026-05-09 11:04 -7.58459 113.50683 19013 ft 391 kts 140°
2026-05-09 11:04 -7.60551 113.52508 19443 ft 394 kts 140°
2026-05-09 11:05 -7.62627 113.54326 19916 ft 395 kts 140°
2026-05-09 11:05 -7.64685 113.56142 20492 ft 393 kts 140°
2026-05-09 11:05 -7.66732 113.57959 21123 ft 391 kts 140°
2026-05-09 11:05 -7.68769 113.59774 21669 ft 390 kts 140°
2026-05-09 11:06 -7.70797 113.61585 22211 ft 390 kts 140°
2026-05-09 11:06 -7.72823 113.63396 22838 ft 388 kts 140°
2026-05-09 11:06 -7.74835 113.65196 23460 ft 385 kts 140°
2026-05-09 11:06 -7.76835 113.66985 23935 ft 385 kts 140°
2026-05-09 11:07 -7.78843 113.68782 24397 ft 385 kts 139°
2026-05-09 11:07 -7.80842 113.70571 24822 ft 386 kts 139°
2026-05-09 11:07 -7.82858 113.72374 24875 ft 387 kts 139°
2026-05-09 11:07 -7.84854 113.74162 24895 ft 384 kts 139°
2026-05-09 11:08 -7.86856 113.75954 24899 ft 384 kts 139°
2026-05-09 11:08 -7.88853 113.77741 24909 ft 384 kts 139°
2026-05-09 11:08 -7.90853 113.79531 24911 ft 385 kts 139°
2026-05-09 11:08 -7.92859 113.81327 24926 ft 386 kts 139°
2026-05-09 11:09 -7.94868 113.83125 24925 ft 386 kts 139°
2026-05-09 11:09 -7.96878 113.84926 24922 ft 386 kts 139°
2026-05-09 11:09 -7.98885 113.86724 24919 ft 386 kts 139°
2026-05-09 11:09 -8.00915 113.88496 24913 ft 386 kts 146°
2026-05-09 11:10 -8.03290 113.89706 24929 ft 382 kts 165°
2026-05-09 11:10 -8.05890 113.90192 24946 ft 379 kts 173°
2026-05-09 11:10 -8.08474 113.90508 24919 ft 368 kts 174°
2026-05-09 11:10 -8.10989 113.90790 24733 ft 362 kts 174°
2026-05-09 11:11 -8.13477 113.91067 24521 ft 358 kts 174°
2026-05-09 11:11 -8.15950 113.91351 24190 ft 357 kts 174°
2026-05-09 11:11 -8.18401 113.91639 23862 ft 355 kts 174°
2026-05-09 11:11 -8.20856 113.91935 23496 ft 354 kts 174°
2026-05-09 11:12 -8.23270 113.92228 23100 ft 353 kts 174°
2026-05-09 11:12 -8.25703 113.92527 22723 ft 351 kts 174°
2026-05-09 11:12 -8.28152 113.92828 22357 ft 349 kts 174°
2026-05-09 11:12 -8.30551 113.93124 22002 ft 347 kts 174°
2026-05-09 11:13 -8.32941 113.93419 21640 ft 345 kts 174°
2026-05-09 11:13 -8.35319 113.93712 21301 ft 343 kts 174°
2026-05-09 11:13 -8.37682 113.94004 20960 ft 341 kts 174°
2026-05-09 11:13 -8.40030 113.94327 20624 ft 340 kts 168°
2026-05-09 11:14 -8.42118 113.95345 20271 ft 343 kts 140°
2026-05-09 11:14 -8.43679 113.97180 19929 ft 340 kts 122°
2026-05-09 11:14 -8.44659 113.99364 19458 ft 342 kts 111°
2026-05-09 11:14 -8.45438 114.01635 18946 ft 343 kts 110°
2026-05-09 11:15 -8.46181 114.03917 18549 ft 341 kts 109°
2026-05-09 11:15 -8.46916 114.06189 18151 ft 338 kts 109°
2026-05-09 11:15 -8.47648 114.08434 17647 ft 336 kts 109°
2026-05-09 11:15 -8.48386 114.10668 17193 ft 333 kts 110°
2026-05-09 11:16 -8.49119 114.12869 16722 ft 330 kts 110°
2026-05-09 11:16 -8.49850 114.15055 16212 ft 327 kts 109°
2026-05-09 11:16 -8.50578 114.17219 15759 ft 323 kts 110°
2026-05-09 11:16 -8.51299 114.19361 15259 ft 322 kts 109°
2026-05-09 11:17 -8.52019 114.21494 14783 ft 320 kts 110°
2026-05-09 11:17 -8.52733 114.23611 14346 ft 317 kts 110°
2026-05-09 11:17 -8.53442 114.25711 13928 ft 313 kts 110°
2026-05-09 11:17 -8.54142 114.27782 13469 ft 310 kts 109°
2026-05-09 11:18 -8.54837 114.29842 12951 ft 309 kts 109°
2026-05-09 11:18 -8.55527 114.31886 12454 ft 307 kts 109°
2026-05-09 11:18 -8.56216 114.33925 12011 ft 304 kts 109°
2026-05-09 11:18 -8.56893 114.35933 11714 ft 301 kts 109°
2026-05-09 11:19 -8.57565 114.37924 11423 ft 299 kts 109°
2026-05-09 11:19 -8.58237 114.39913 11128 ft 298 kts 108°
2026-05-09 11:19 -8.58904 114.41892 10832 ft 298 kts 108°
2026-05-09 11:19 -8.59572 114.43872 10528 ft 297 kts 108°
2026-05-09 11:20 -8.60236 114.45842 10228 ft 297 kts 108°
2026-05-09 11:20 -8.60894 114.47794 10093 ft 290 kts 107°
2026-05-09 11:20 -8.61543 114.49719 9796 ft 289 kts 107°
2026-05-09 11:20 -8.62189 114.51635 9505 ft 288 kts 107°
2026-05-09 11:21 -8.62833 114.53547 9196 ft 287 kts 107°
2026-05-09 11:21 -8.63473 114.55448 8908 ft 286 kts 107°
2026-05-09 11:21 -8.64113 114.57345 8623 ft 285 kts 107°
2026-05-09 11:21 -8.64751 114.59242 8332 ft 284 kts 107°
2026-05-09 11:22 -8.65386 114.61129 8048 ft 283 kts 107°
2026-05-09 11:22 -8.66019 114.63008 7750 ft 283 kts 107°
2026-05-09 11:22 -8.66654 114.64894 7475 ft 282 kts 107°
2026-05-09 11:22 -8.67284 114.66767 7188 ft 282 kts 107°
2026-05-09 11:23 -8.67914 114.68638 6891 ft 279 kts 107°
2026-05-09 11:23 -8.68535 114.70482 6599 ft 274 kts 107°
2026-05-09 11:23 -8.69143 114.72287 6320 ft 269 kts 106°
2026-05-09 11:23 -8.69741 114.74065 6050 ft 267 kts 107°
2026-05-09 11:24 -8.70339 114.75843 5760 ft 267 kts 107°
2026-05-09 11:24 -8.70934 114.77615 5489 ft 266 kts 107°
2026-05-09 11:24 -8.71531 114.79388 5216 ft 266 kts 107°
2026-05-09 11:24 -8.72124 114.81153 4952 ft 265 kts 107°
2026-05-09 11:25 -8.72716 114.82912 4693 ft 264 kts 107°
2026-05-09 11:25 -8.73306 114.84666 4421 ft 262 kts 107°
2026-05-09 11:25 -8.73890 114.86405 4155 ft 261 kts 107°
2026-05-09 11:25 -8.74471 114.88136 3883 ft 260 kts 107°
2026-05-09 11:26 -8.75046 114.89854 3710 ft 255 kts 108°
2026-05-09 11:26 -8.75515 114.91550 3604 ft 246 kts 94°
2026-05-09 11:26 -8.75523 114.93227 3572 ft 232 kts 89°
2026-05-09 11:26 -8.75507 114.94814 3475 ft 218 kts 90°
2026-05-09 11:27 -8.75513 114.96302 3336 ft 207 kts 91°
2026-05-09 11:27 -8.75535 114.97723 3157 ft 198 kts 90°
2026-05-09 11:27 -8.75513 114.99099 3032 ft 193 kts 89°
2026-05-09 11:27 -8.75472 115.00438 2820 ft 188 kts 88°
2026-05-09 11:28 -8.75424 115.01733 2585 ft 182 kts 89°
2026-05-09 11:28 -8.75375 115.02994 2355 ft 177 kts 90°
2026-05-09 11:28 -8.75327 115.04199 2126 ft 168 kts 91°
2026-05-09 11:28 -8.75283 115.05349 1961 ft 159 kts 91°
2026-05-09 11:29 -8.75240 115.06442 1723 ft 151 kts 90°
2026-05-09 11:29 -8.75200 115.07483 1524 ft 144 kts 90°
2026-05-09 11:29 -8.75161 115.08480 1369 ft 142 kts 92°
2026-05-09 11:29 -8.75123 115.09472 1177 ft 141 kts 92°
2026-05-09 11:30 -8.75084 115.10473 1001 ft 142 kts 92°
2026-05-09 11:30 -8.75043 115.11473 841 ft 144 kts 91°
2026-05-09 11:30 -8.75000 115.12492 655 ft 146 kts 91°
2026-05-09 11:30 -8.74973 115.13503 379 ft 140 kts 90°
2026-05-09 11:31 -8.74925 115.14467 268 ft 137 kts 92°
2026-05-09 11:31 -8.74894 115.15432 57 ft 139 kts 91°
2026-05-09 11:31 -8.74863 115.16324 27 ft 109 kts 87°
2026-05-09 11:31 -8.74835 115.16933 27 ft 55 kts 88°
2026-05-09 11:32 -8.74823 115.17212 26 ft 21 kts 84°
2026-05-09 11:32 -8.74796 115.17302 29 ft 9 kts 37°
2026-05-09 11:32 -8.74741 115.17313 28 ft 6 kts 359°
2026-05-09 11:32 -8.74697 115.17310 30 ft 6 kts 348°
2026-05-09 11:33 -8.74663 115.17286 29 ft 6 kts 300°
2026-05-09 11:33 -8.74657 115.17242 31 ft 7 kts 269°
2026-05-09 11:33 -8.74663 115.17107 31 ft 13 kts 268°
2026-05-09 11:34 -8.74667 115.17011 31 ft 14 kts 267°
2026-05-09 11:34 -8.74670 115.16947 31 ft 14 kts 266°
2026-05-09 11:34 -8.74674 115.16823 31 ft 13 kts 268°
2026-05-09 11:34 -8.74679 115.16733 31 ft 13 kts 268°
2026-05-09 11:35 -8.74681 115.16675 31 ft 12 kts 268°
2026-05-09 11:35 -8.74686 115.16590 31 ft 12 kts 266°
2026-05-09 11:35 -8.74687 115.16508 31 ft 8 kts 269°
2026-05-09 11:35 -8.74666 115.16478 32 ft 6 kts 345°
2026-05-09 11:36 -8.74624 115.16475 32 ft 6 kts 358°
2026-05-09 11:36 -8.74587 115.16473 32 ft 3 kts 358°
2026-05-09 11:36 -8.74573 115.16473 32 ft 0 kts 358°
2026-05-09 11:36 -8.74566 115.16472 32 ft 2 kts 358°
2026-05-09 11:37 -8.74562 115.16472 32 ft 0 kts 358°